Other Public Products
Issued by NWS Grand Forks, ND

Home | Current Version | Previous Version | Text Only | Print | Product List | Glossary Off
Versions: 1 2 3 4 5 6 7 8 9 10 11 12 13 14 15 16 17 18 19 20 21 22 23 24 25 26 27 28 29 30 31 32 33 34 35 36 37 38 39 40 41 42 43 44 45 46 47 48 49 50

000
FPUS83 KFGF 261431
OPUFGF
PRAIRIE TO PINES WEATHER ROUNDUP
NATIONAL WEATHER SERVICE EASTERN NORTH DAKOTA/GRAND FORKS ND
900 AM CDT FRI AUG 26 2016

 **SATELLITE DATA USED TO AUGMENT SKY COVER AT AUTOMATED STATIONS**
 *****  WEATHER ACROSS EASTERN NORTH DAKOTA  *****

CITY           SKY/WX    TMP DP  RH WIND       PRES   REMARKS
GRAND FORKS    FAIR      57  50  77 S3        30.07S
GRAND FORKS AF FAIR      61  52  70 SW5       30.07R
GRAND CITY NWS   N/A     57 N/A N/A S7          N/A
BUXTON           N/A     62  56  81 S5          N/A
DEVILS LAKE    NOT AVBL
FARGO          FAIR      60  50  69 S10       30.12R
WAHPETON ARPT  FAIR      59  52  77 SW3       30.15S
$$

 *****  WEATHER ACROSS CENTRAL AND WESTERN NORTH DAKOTA  *****

CITY           SKY/WX    TMP DP  RH WIND       PRES   REMARKS
JAMESTOWN      FAIR      58  51  78 SW8       30.11R
BISMARCK       PTSUNNY   53  49  86 CALM      30.12S
MINOT          FAIR      61  46  57 SW10      30.04R
MINOT AFB      FAIR      60  45  57 SW7       30.03S
GARRISON         N/A     57  50  77 SW6       30.08R
WILLISTON      CLOUDY    54  42  64 S5        30.06S
DICKINSON      PTSUNNY   54  44  69 SW6       30.09S
HETTINGER      CLOUDY    52  45  77 CALM      30.13S
$$

 *****  OTHER OBSERVATIONS NORTHEAST NORTH DAKOTA  *****

CITY           SKY/WX    TMP DP  RH WIND       PRES   REMARKS
WALHALLA       FAIR      63  61  94 CALM      30.04S
LANGDON        FAIR      59  54  82 SW9       30.06S
CAVALIER       FAIR      59  52  77 S6        30.04S
GRAFTON        FAIR      59  54  82 S6        30.07F
CANDO          FAIR      59  54  82 SW7       30.08R
FORT TOTTEN      N/A     56  48  74 S6        29.95
ROLLA          FAIR      57  48  72 SW7       30.05R
RUGBY          NOT AVBL
 ***** THE ABOVE OBSERVATIONS ARE NON NWS ARE NOT QUALITY
        CONTROLLED AND MAY MIS-REPORT RAIN FOR SNOW...
$$

 *****  OTHER OBSERVATIONS SOUTHEAST NORTH DAKOTA *****

CITY           SKY/WX    TMP DP  RH WIND       PRES   REMARKS
COOPERSTOWN    NOT AVBL
VALLEY CITY    FAIR      59  54  82 SW12      30.14R
OAKES            N/A    N/A N/A N/A MISG        N/A
GWINNER        FAIR      57  54  88 SW10      30.15S
SHEYENNE NWR     N/A     57  52  84 W6        29.95S
BUFFALO          N/A     59  52  79 SW8         N/A
WYNDMERE         N/A     61  55  82 SW3         N/A
 ***** THE ABOVE OBSERVATIONS ARE NON NWS ARE NOT QUALITY
       CONTROLLED AND MAY MIS-REPORT RAIN FOR SNOW...
$$

  *****  WEATHER ACROSS NORTHERN MINNESOTA  *****

CITY           SKY/WX    TMP DP  RH WIND       PRES   REMARKS
FLAG ISLAND    FAIR      61  48  63 CALM      30.06S
WARROAD        FAIR      57  54  88 CALM      30.08S
ROSEAU         FAIR      57  52  82 CALM      30.07S
HALLOCK        FAIR      57  54  88 S5        30.05S
THF RVR FALLS  FAIR      55  52  89 S6        30.10S
HALSTAD          N/A     59  52  78 S5          N/A
FOSSTON        FAIR      57  52  82 S7        30.12S
BAUDETTE       FAIR      55  51  86 S3        30.09S
WASKISH        FAIR      61  55  82 CALM      30.10S
CROOKSTON      FAIR      57  52  82 S7        30.10S
$$
  *****  WEATHER ACROSS CENTRAL AND WEST MINNESOTA  *****

CITY           SKY/WX    TMP DP  RH WIND       PRES   REMARKS
BEMIDJI        FAIR      58  52  80 SW5       30.12S
PARK RAPIDS    FAIR      60  53  77 SW6       30.14R
WADENA         FAIR      61  55  82 W5        30.15S
DETROIT LAKES  FAIR      61  52  72 SW5       30.15R
MOORHEAD       FAIR      57  52  82 S6        30.14R
FERGUS FALLS   FAIR      59  57  94 S6        30.17S
ELBOW LAKE     FAIR      59  55  88 SW5       30.17S
MORRIS MN      FAIR      63  57  82 CALM      30.17S
STAPLES        FAIR      61  54  77 W3        30.16R
WHEATON        FAIR      64  57  77 S5        30.18S
$$
  *****  WEATHER ELSEWHERE ACROSS MINNESOTA  *****

CITY           SKY/WX    TMP DP  RH WIND       PRES   REMARKS
DULUTH         FAIR      63  53  70 NW5       30.15R
INTRNTL FALLS  FAIR      56  53  90 S3        30.11S
ELY            FAIR      54  54 100 CALM      30.15R
CLOQUET        FAIR      61  50  67 CALM      30.16R
BRAINERD       FAIR      59  56  89 SW5       30.16R
HIBBING        FAIR      59  51  75 CALM      30.13F
ALEXANDRIA     FAIR      60  55  83 CALM      30.19R
SAINT CLOUD    FAIR      62  57  83 CALM      30.18R
MINNEAPOLIS    FAIR      62  55  77 CALM      30.19R
$$

  *****  WEATHER ACROSS SOUTH DAKOTA  *****

CITY           SKY/WX    TMP DP  RH WIND       PRES   REMARKS
SIOUX FALLS    PTSUNNY   59  55  87 CALM      30.19S
BROOKINGS      FAIR      55  53  93 N3        30.19S
WATERTOWN      FAIR      58  53  84 CALM      30.18R
HURON          MOSUNNY   57  50  77 CALM      30.18R
SISSETON         N/A     62  56  80 VRB3      30.15R
ABERDEEN       MOSUNNY   54  49  83 S5        30.16F
MITCHELL       MOSUNNY   57  54  89 MISG      30.19S
PIERRE         CLOUDY    54  52  93 SE6       30.13F
MOBRIDGE       PTSUNNY   59  49  69 S7        30.13S
RAPID CITY     CLOUDY    54  51  90 SE8       30.17R
$$

  *****  SOME WEATHER IN NEARBY STATES *****

CITY           SKY/WX    TMP DP  RH WIND       PRES   REMARKS
GLASGOW MT     LGT RAIN  54  49  83 NW6       30.05S
GREAT FALLS MT CLOUDY    51  44  77 SW6       30.16S
CHEYENNE WY    CLOUDY    53  48  83 CALM      30.20S
SCOTTSBLUFF NE LGT RAIN  58  54  86 E6        30.14S
OMAHA NE       CLOUDY    65  57  75 CALM      30.15F
DES MOINES IA  CLOUDY    66  60  81 SE5       30.18S
DAVENPORT IA   FAIR      66  62  87 NE9       30.18S
CHICAGO IL     PTSUNNY   70  59  68 N7        30.18R
EAU CLAIRE WI  FAIR      62  57  83 W5        30.19R
LA CROSSE WI   FAIR      65  59  81 CALM      30.20R
$$

  *****  SOME NATIONAL WEATHER *****

CITY           SKY/WX    TMP DP  RH WIND       PRES   REMARKS
LA GUARDIA NY  FAIR      83  72  69 NW5       29.98S
RALEIGH NC     FAIR      85  72  65 VRB3      30.10S HX  91
ATLANTA GA     FAIR      82  70  66 S3        30.14R
NEW ORLEANS LA FAIR      85  77  77 NE13      30.03R HX  95
OKLAHOMA CITY  PTSUNNY   75  67  76 E6        30.08R
ALBUQUERQUE NM MOSUNNY   62  55  77 N6        30.23S
SALT LAKE CITY MOSUNNY   67  44  43 SE15      30.03S
LOS ANGELES CA CLOUDY    67  56  67 E3        29.95R
BOISE ID       MOCLDY    60  35  39 SE6       29.99R
SEATTLE WA     MOCLDY    66  53  63 SE5       29.95S
$$

*** WEATHER ACROSS MANITOBA...SASKATCHEWAN AND ONTARIO ***
                ***ONTARIO***

CITY           SKY/WX    TMP DP  RH WIND       PRES   REMARKS
GERALDTON      MOSUNNY   55  52  88 W3        30.08R
THUNDER BAY    MOSUNNY   61  50  67 NW6       30.10R
SIOUX LOOKOUT  MOSUNNY   59  54  82 SW5       30.08S
TORONTO        MOSUNNY   75  63  64 W5        30.07S
BIG TROUT LK   SUNNY     61  54  77 SW7       29.88F
PICKLE LAKE    MOSUNNY   59  54  82 W8        30.03R
DRYDEN         SUNNY     59  55  88 SW5       30.09R
KENORA         MOSUNNY   59  54  82 S5        30.08
$$
                *** MANITOBA***

CITY           SKY/WX    TMP DP  RH WIND       PRES   REMARKS
BRANDON        PTSUNNY   55  48  76 SW7       30.00S
DAUPHIN        CLOUDY    61  54  77 NW3       29.95S
ISLAND LAKE    PTSUNNY   63  55  77 SW5       29.90
PILOT MOUND      N/A     57  50  77 S8          N/A
THE PAS        MOSUNNY   59  54  82 CALM      29.88S
THOMPSON       LGT RAIN  55  52  88 N7        29.91R
WINNIPEG       SUNNY     61  50  67 S7        30.02F
LYNN LAKE      PTSUNNY   52  45  76 MISG      29.94S
CHURCHILL      PTSUNNY   48  41  76 NW14G21   29.89F
GILLAM         CLOUDY    52  45  76 E3        29.90
$$
                ***SASKATCHEWAN***

CITY           SKY/WX    TMP DP  RH WIND       PRES   REMARKS
ESTEVAN        PTSUNNY   55  50  82 SW6       30.02F
KINDERSLEY     CLOUDY    54  52  94 NW9       30.02S
LLOYDMINSTER   MOSUNNY   52  50  93 NW7       30.02S
PRINCE ALBERT  LGT RAIN  55  54  94 W5        29.91S FOG
REGINA         PTSUNNY   55  54  94 W9        29.98F
YORKTON        CLOUDY    57  54  88 SW7       29.94F   C1F1C2F2C3F3C4F4C5F5C6F6C7F7C8F8C9F9CaFaCbFbCcFcCdFdCe!



USA.gov is the U.S. government's official web portal to all federal, state and local government web resources and services.